Погода Дивное

Погода Дивное : погода сейчас, прогноз погоды и архив. Всё, что Вы хотите узнать о погоде Дивное!

Хотите узнать прогноз погоды Дивное? Тогда Вам сюда: Погода Дивное

Поиск расширенной информации на нашем сайте:

Другие новости

Новости СМИ2

Главная страница сайта

Новости сайта

03.07.2017

Напоминаем, что на нашем специализированном сайте Метеоцентр.Азия вы можете получить высокодетализированные автоматические прогнозы погоды по пунктам России, СНГ и мира в авиационном формате (включающие направление и скорость ветра, видимость, явления погоды, количество и форму облачности, нижнюю и верхнюю границу облачности).

Рекомендуем: Виза в испанию казань мультивизы оформление визы в казани www.travel-kzn.ru.

Погода Дивное - сегодня

Время (UTC), дата Ветер
(°,м/с) 
Видим.   Явления Облачность Т
(°С)
Тd
(°С)
f(%) Тe
(°С)
Pmin
(гПа)
dP
(гПа)
Po
(мм)
O2
(г/м3)
Тmin Tmax R s Состояние
почвы
18 19.07.17 340 (С) 10 км    6/0 верхняя 
[Ci sp]
+30.7 +11.1 30 +33  1008.2  1.2  749  269           
21 19.07.17 340 (С) 10 км    ясно 
+27.1 +11.6 38 +30  1007.2  -1.1  748  272           
00 20.07.17 320 (СЗ) 10 км    ясно 
+24.1 +14 53 +31  1007.4  0.2  748  274           
03 20.07.17 350 (С) 10 км    ясно 
+22.9 +13.2 54 +29  1008.3  0.8  749  276  +22.3        сухая 
06 20.07.17 350 (С) 10 км    ясно 
+27.9 +11.6 36 +31  1008.1  749  272           
09 20.07.17 350 (С) 10 км    3/0 верхняя 
[Ci fib]
+33.4 +11 25 +36  1007  -1  748  267           
12 20.07.17 320 (СЗ) 10 км    8/0 средняя, верхняя 
[Ac trans|Ci sp]
+36.5 +8.2 18 +37  1006  -0.9  747  264           
15 20.07.17 300 (СЗ) 6-12  10 км    8/0 средняя, верхняя 
[Ac trans|Ci sp]
+32.2 +9.8 25 +33  1006.2  -0.1  747  268    +36.7       
18 20.07.17 310 (СЗ) 5-10{15}  10 км    10/0 средняя 
[Ac As]
+27.4 +13.2 42 +33  1007.8  1.4  748  272           
21 20.07.17 340 (С) 3{10}  10 км    ясно 
+25 +15 54 +34  1007.7  0.1  748  273           
00 21.07.17 290 (З) 10 км    ясно 
+23.4 +14.9 59 +32  1008.9  1.1  749  275           
03 21.07.17 310 (СЗ) 10 км    10/0 средняя 
[Ac As]
+22.2 +15.4 65 +32  1011.1  2.1  751  277  +21.3        сухая 
06 21.07.17 310 (СЗ) 10 км    8/0 средняя, верхняя 
[Ac trans|Ci fib]
+24 +16.9 65 +36  1012.9  1.8  752  275  +20.8         
09 21.07.17 300 (СЗ) 10 км    4/0 средняя 
[Ac trans]
+27.4 +15.9 49 +38  1012.8  752  272           
12 21.07.17 310 (СЗ) 4-10{10}  10 км    4/3 1000 м средняя, верхняя 
[Cu hum|Ac trans|Ci fib]
+29.9 +14.8 40 +38  1012  -0.7  752  270           
15 21.07.17 320 (СЗ) 3{10}  10 км    4/0 средняя, верхняя 
[Cu hum|Ac trans|Ci fib]
+29.5 +14.6 40 +37  1012.2  -0.1  752  270    +31       
18 21.07.17 300 (СЗ) 10 км    ясно 
+25 +13.1 48 +30  1013.7  1.3  753  275           
21 21.07.17 290 (З) 10 км    ясно 
+21.7 +12.4 55 +26  1013.7  753  279           
00 22.07.17 290 (З) 10 км    ясно 
+20.1 +12.6 62 +25  1013.6  -0.2  753  280           
03 22.07.17 360 (С) 10 км    ясно 
+22.5 +13.7 58 +29  1013.9  0.4  753  278  +18.8        сухая 
06 22.07.17 060 (СВ) 10 км    ясно 
+29.9 +13.3 36 +36  1013.7  0.1  753  271           
09 22.07.17 040 (СВ) 10 км    4/0 верхняя 
[Ci fib]
+33 +12 28 +37  1012.4  -1.2  752  268           
12 22.07.17 040 (СВ) 10 км    6/4 1000 м верхняя 
[Cu med, cong|Ci sp]
+34.9 +10.3 22 +36  1011  -1.3  751  267           
15 22.07.17 050 (СВ) 10 км    8/0 средняя, верхняя 
[Ac trans|Ci sp]
+33.2 +10.8 25 +35  1009.4  -1.6  750  267    +35       
18 22.07.17 050 (СВ) 10 км    8/4 1000 м кучево-дожд., средняя, верхняя 
[Cb calv|Ac trans|Ci sp]
+28.8 +12.6 37 +34  1010.3  0.7  750  271           
Время (UTC), дата Ветер
(°,м/с) 
Видим.   Явления Облачность Т
(°С)
Тd
(°С)
f(%) Тe
(°С)
Pmin
(гПа)
dP
(гПа)
Po
(мм)
O2
(г/м3)
Тmin Tmax R s Состояние
почвы

Для получения пояснительной информации подведите курсор к названию столбца.

ПОГОДА Дивное - архив

Всё, что Вы хотите узнать о погоде Дивное - удобно и подробно!

Выберите нужную дату (начиная с 1 января 2015* года) и нажмите кнопку "Найти".
Будут отображены архивные сводки погоды по пункту Дивное, начиная с указанной даты.


Отображать данные в формате CSV (для использования в таблицах Excel)


Внимание! Наш архив погоды предназначен исключительно для личного некоммерческого использования в познавательных целях. Если Вам необходимы официальные справки о состоянии погоды (для производственных, юридических, коммерческих и т.п. целей), обращайтесь в органы Росгидромета.

*Примечание: данная дата относится к архиву по метеостанциям СССР (Россия, СНГ, Балтия).
Архив по метеостанциям Зарубежной Европы и Азии (кроме Китая) хранится 10 дней, по другим регионам земного шара (Китай, Африка, Америка, Австралия, Океания) - 1 день.

Дивное - район местоположения метеостанции


Название, широта, долгота, высота метеостанции:
Дивное 45.9°ш. 43.3°д. 87 м над ур. моря [Российская Федерация]

Дополнительная информация

В oтличие oт бoльшинства пoгoдных сайтoв мы публикуем пoдрoбную метеoинфoрмацию в детальнoм прoфессиoнальнoм фoрмате.

Характеристики температуры и влажнoсти вoздуха измеряются на высoте 2 м в тени вдали oт зданий и деревьев.
Скoрoсть ветра измеряется на высoте 10 м (на урoвне рoста челoвека скoрoсть ветра ниже в 1.5-2 раза). Если метеoстанция нахoдится в гoрoде или в лесу, тo скoрoсть ветра занижена на 2-4 м/с пo сравнению с oткрытым местoм. Скoрoсть ветра над акватoриями крупных рек и oзёр, а также на вершинах хoлмoв на 2-5 м/с выше, чем в oбычных услoвиях.
Атмoсфернoе давление в разных тoчках местнoсти мoжет значительнo oтличаться oт давления на метеoстанции, в зависимoсти oт услoвий рельефа (при пoдъёме на 10 м давление пoнижается примернo на 1 мм рт.ст.).